Starlink 31010

operational
NORAD ID: 58519 Int'l Des: 2023-191 Owner: SPXS Country: US Constellation: starlink
LEOCIRCULAR

Starlink 31010について

説明を読み込み中...

リアルタイム位置

3D地球を読み込み中...

次回通過

高度履歴

Altitude vs Time

uPlot chart will show altitude changes over time

軌道要素

1 58519U 23191M 25257.50793395 .00000452 00000-0 48559-4 0 9992
2 58519 43.0047 342.8579 0001157 272.4411 87.6299 15.02536274 98947
Epoch: Sep 14, 2025 • Age: 23 hours

現在のステータス

高度 561.0 km
速度 7.58 km/s
衛星直下点 -11.62°S, 4.59°E
打ち上げ日 Dec 7, 2023
運用期間 1.7 years
タイプ internet

技術仕様

分類 Payload
質量 730.00 kg
乾燥質量 700.00 kg
総質量 730.00 kg
長さ 0.30 m
直径 4.10 m
スパン 29.00 m
形状 Box + pan
製造者 SPXS
バスタイプ Starlink V2M
フェーズステータス In Orbit
所有者/国 SPXS/US

大規模コンステレーション

Loading constellations...